Home   Weather   Frankfort   Past weeks

Flag for USA Past Weather in Frankfort, Kentucky, USA — Yesterday and Last 2 Weeks

Now
43 °F

Clear.


Feels Like: 39 °F
Forecast: 40 / 49 °F
Wind: 7 mph from Northeast

Location: Capital City Airport

Current Time: Dec 5, 2016 at 8:00:12 pm

Latest Report: Dec 5, 2016 at 6:53 pm


Visibility: 10 mi

Pressure: 29.96 "Hg

Humidity: 71%

Dew Point: 34 °F

Location of FrankfortLocation

Past Weather in Frankfort — Graph

°F

Frankfort Temperature Yesterday

Maximum temperature yesterday: 48 °F (at 1:53 pm)
Minimum temperature yesterday: 38 °F (at 3:53 am)
Average temperature yesterday: 43 °F

High & Low Weather Summary for the Past Weeks

 TemperatureHumidityPressure
High65 °F (Nov 29, 2:53 pm)93% (Nov 24, 3:53 am)30.43 "Hg (Nov 24, 3:53 am)
Low21 °F (Nov 21, 5:53 am)26% (Nov 23, 3:53 pm)29.41 "Hg (Nov 28, 8:53 pm)
Average43 °F69%30.10 "Hg
* Reported Nov 20 5:53 pm — Dec 5 5:53 pm, Frankfort, Weather by CustomWeather, © 2016

Note: Actual official high and low records may vary slightly from our data, if they occured in-between our weather recording intervals... More about our weather records

Advertising

Frankfort Weather History for the Previous 24 Hours

Scroll right to see more
 ConditionsComfort  
Time TempWeatherWind HumidityBarometerVisibility
5:53 pm
Mon, Dec 5
43 °FClear.7 mph71%29.99 "Hg10 mi
4:53 pm44 °FSunny.7 mph68%30.02 "Hg10 mi
3:53 pm44 °FSunny.8 mph68%30.01 "Hg10 mi
2:53 pm44 °FPassing clouds.9 mph68%30.03 "Hg10 mi
2:03 pm44 °FScattered clouds.8 mph65%30.03 "Hg10 mi
1:53 pm44 °FPartly sunny.8 mph65%30.04 "Hg10 mi
12:53 pm43 °FOvercast.7 mph68%30.07 "Hg10 mi
11:53 am42 °FOvercast.6 mph71%30.11 "Hg10 mi
9:53 am40 °FOvercast.5 mph73%30.11 "Hg10 mi
8:53 am39 °FOvercast.6 mph76%30.09 "Hg10 mi
7:53 am38 °FOvercast.5 mph83%30.08 "Hg10 mi
6:53 am39 °FOvercast.5 mph82%30.09 "Hg10 mi
5:53 am40 °FOvercast.6 mph83%30.08 "Hg10 mi
4:53 am41 °FMostly cloudy.5 mph82%30.07 "Hg10 mi
3:53 am42 °FMostly cloudy.3 mph79%30.04 "Hg10 mi
3:01 am42 °FOvercast.5 mph79%30.03 "Hg10 mi
1:53 am43 °FMostly cloudy.9 mph82%30.01 "Hg10 mi
12:53 am44 °FOvercast.7 mph85%30.00 "Hg9 mi
11:53 pm
Sun, Dec 4
45 °FOvercast.9 mph82%29.99 "Hg9 mi
10:53 pm46 °FOvercast.8 mph83%29.96 "Hg10 mi
9:53 pm46 °FOvercast.12 mph83%29.92 "Hg10 mi
8:53 pm47 °FOvercast.7 mph83%29.92 "Hg10 mi
Weather by CustomWeather, © 2016

See weather overviewHow to use our weather pages